Regional Weather Roundup
Issued by NWS Wakefield, VA

Home | Current Version | Previous Version | Graphics & Text | Print | Product List | Glossary On
Versions: 1 2 3 4 5 6 7 8 9 10 11 12 13 14 15 16 17 18 19 20 21 22 23 24 25 26 27 28 29 30 31 32 33 34 35 36 37 38 39 40 41 42 43 44 45 46 47 48 49 50
022
ASUS41 KAKQ 221615
RWRAKQ

REGIONAL WEATHER ROUNDUP
NATIONAL WEATHER SERVICE WAKEFIELD VA
1200 PM EDT SUN APR 22 2018

Note: "fair" indicates few or no clouds below 12,000 feet with no
significant weather and/or obstructions to visibility. * = Denotes
station may not report precipitation (e.g., rain,snow,etc.),
thunder or fog.

VAZ042-051-052>054-056-221700-
NORTHERN VIRGINIA

CITY           SKY/WX    TMP DP  RH WIND       PRES   REMARKS
WASH NATIONAL  PTSUNNY   63  42  46 E13G18    30.39F
DULLES         PTSUNNY   62  41  46 E8        30.37F
FORT BELVOIR   FAIR      62  42  47 CALM      30.37F
QUANTICO       FAIR      60  47  61 SW7       30.38F
FREDERICKSBRG* FAIR      63  45  51 E7        30.36F
STAFFORD*      FAIR      65  45  48 E7        30.40F
WARRENTON      FAIR      64  39  39 E7        30.36F
CULPEPER*      FAIR      62  43  49 SE5       30.37F
MANASSAS*      FAIR      62  43  49 SE10      30.37F
LEESBURG*      FAIR      63  43  48 E6        30.38F
WINCHESTER     FAIR      61  39  44 SE10      30.36F
FRONT ROYAL*   FAIR      63  39  42 E8        30.33S
LURAY*         FAIR      61  34  36 CALM      30.33F
$$

VAZ048-049-060>072-079>083-221700-
CENTRAL AND SOUTH CENTRAL VIRGINIA

CITY           SKY/WX    TMP DP  RH WIND       PRES   REMARKS
RICHMOND       PTSUNNY   63  43  48 VRB3      30.37F
CHESTERFIELD*  FAIR      65  45  48 S7        30.37F
PETERSBURG*    FAIR      64  40  42 SE3       30.38F
HANOVER        FAIR      63  42  46 CALM      30.38F
TAPPAHANNOCK*  FAIR      64  42  44 E6        30.38F
QUINTON*       FAIR      63  41  44 SE6       30.38F
CHARLOTTSVILLE FAIR      62  41  46 SE5       30.35F
GORDONSVILLE*  FAIR      62  44  51 CALM      30.35F
ORANGE*        FAIR      61  43  51 CALM      30.35F
LOUISA*        FAIR      64  43  46 SE8       30.39F
BUMPASS*       FAIR      63  43  47 S3        30.36F
FARMVILLE*     FAIR      67  44  42 S5        30.33F
CREWE*         FAIR      65  47  51 SE7       30.35F
FORT PICKETT*  FAIR      65  46  49 SW9G17    30.36F
CHASE CITY*    FAIR      65  45  47 SE7       30.36F
CLARKSVILLE*   FAIR      66  43  42 SE8       30.35F
SOUTH HILL*    FAIR      65  47  53 S5        30.42F
LAWRENCEVILLE* FAIR      65  43  43 CALM      30.36F
EMPORIA*       FAIR      64  37  36 S5        30.39F
$$

VAZ088>098-221700-
SOUTHEAST VIRGINIA

CITY           SKY/WX    TMP DP  RH WIND       PRES   REMARKS
NORFOLK        FAIR      63  41  44 NE10      30.39F
VIRGINIA BEACH PTSUNNY   60  31  33 E12       30.40F
NORFOLK NAVAL  PTSUNNY   62  41  46 NE10      30.41F
WEST POINT*    FAIR      64  39  39 SE7       30.40F
SALUDA*        FAIR      58  47  67 E9        30.40F
NEWPORT NEWS   FAIR      63  40  42 S6        30.39F
LANGLEY AFB    PTSUNNY   62  41  45 E9        30.40F
FORT EUSTIS    FAIR      63  41  43 S10       30.37F
WILLIAMSBURG*  FAIR      66  37  34 SE9       30.40F
HR EXEC AP*    FAIR      65  38  36 CALM      30.40F
FRANKLIN*      FAIR      65  38  36 SE3       30.39F
US460-WAKEFLD  FAIR      64  41  42 S5        30.38F
$$

VAZ020-022-025-037-045-221700-
WEST CENTRAL AND SOUTHWEST VIRGINIA

CITY           SKY/WX    TMP DP  RH WIND       PRES   REMARKS
STAUNTON*      FAIR      57  34  43 CALM      30.35F
WAYNESBORO*    FAIR      57  39  50 NE3       30.33S
HOT SPRINGS VA FAIR      55  27  34 SE5       30.33S
LYNCHBURG      FAIR      65  44  46 S9        30.34S
DANVILLE       FAIR      65  47  52 SW9       30.35F
SOUTH BOSTON*  FAIR      66  44  44 CALM      30.35F
MARTINSVILLE   FAIR      64  47  52 W3        30.37S
ROANOKE        CLOUDY    62  39  42 N5        30.35S
BLACKSBURG     FAIR      64  38  38 SW6       30.34F
DUBLIN*        FAIR      65  38  35 SE7       30.32F
MARION*        FAIR      63  37  38 E5        30.33S
HILLSVILLE*    FAIR      58  40  50 S9G16     30.32S
RICHLANDS*     FAIR      62 -21   3 CALM      30.29F
WISE*          FAIR      63  36  36 E6        30.29F
ABINGDON*      FAIR      66  34  30 CALM      30.28F
$$

MDZ021>025-VAZ099-100-221700-
SOUTHERN MARYLAND AND THE DELMARVA PENINSULA

CITY           SKY/WX    TMP DP  RH WIND       PRES   REMARKS
PATUXENT RIVER CLOUDY    59  41  51 SE8       30.40F
BAY BRIDGE APT FAIR      61  36  39 SE7       30.41F
LEONARDTOWN    FAIR      59  43  55 SE7       30.41F
DOVER          MOSUNNY   58  27  31 E7        30.43F
GEORGETOWN     FAIR      62  31  31 NE7       30.42F
EASTON         MOSUNNY   63  36  36 SE8       30.44F
CAMBRIDGE      SUNNY     61  43  51 VRB3      30.41F
SALISBURY      FAIR      61  37  41 CALM      30.41F
TANGIER        FAIR      57  45  62 S7        30.41F
OCEAN CITY     FAIR      55  36  48 E13       30.44S
WALLOPS ISLAND FAIR      60  45  57 E9        30.42F
ACCOMACK*      FAIR      62  36  38 SE10      30.41F
$$

NCZ012>017-030>032-221700-
NORTH CENTRAL AND EASTERN NORTH CAROLINA

CITY           SKY/WX    TMP DP  RH WIND       PRES   REMARKS
ROANOKE RAPIDS FAIR      64  41  42 S5        30.38F
RALEIGH        PTSUNNY   67  46  47 VRB6      30.37F
ELIZABETH CITY FAIR      64  36  35 E12       30.41F
AHOSKIE*       FAIR      64  39  40 SE7       30.39F
EDENTON*       FAIR      65  40  39 E8        30.41F
CURRITUCK*     NOT AVBL
KILL DEVIL HLS FAIR      58  37  45 CALM      30.42F
MANTEO         FAIR      60  34  37 E8        30.42F
CAPE HATTERAS  FAIR      62  35  36 N8        30.41F
TARBORO*       NOT AVBL
GOLDSBORO      FAIR      67  40  36 E9        30.35F
WASHINGTON     FAIR      67  38  33 SE7       30.39F
GREENVILLE     FAIR      66  41  39 S3        30.38F HAZE
NEW BERN       FAIR      66  44  45 E10       30.40F
WILMINGTON     FAIR      67  48  50 E15       30.36F
$$

VAZ048-221700-
ELSEWHERE

CITY           SKY/WX    TMP DP  RH WIND       PRES   REMARKS
HARRISBURG PA  PTSUNNY   60  27  28 SE6       30.41F
BALTIMORE      PTSUNNY   59  30  33 E13       30.40F
ANNAPOLIS      FAIR      60  47  61 SE8       30.40F
ANDREWS AFB    FAIR      62  43  50 E13       30.37F
PHILADELPHIA   PTSUNNY   59  21  23 SE6       30.43F
HENDERSON NC   FAIR      64  40  42 S8        30.36F
GREENSBORO     CLOUDY    63  46  54 S6        30.34F
ROCKY MOUNT    FAIR      67  42  40 VRB3      30.38F
$$

VAZ100-221700-
MARINE

STATION/POSITION TIME  TEMP    WIND        PRES    WAVE   SWELL
                       AIR SEA DIR/SP/G            HT/PER HT/PER
                 (UTC) (F)     (DEG/KT/KT) (MB)    (FT/S) (FT/S)
BRANDYWINE LGT   1542   50     210/  6/  7 1031.3F
CAPE MAY NJ      1548   54 49  130/  8/ 12 1030.2F
LEWES DE         1548   53 49  100/  8/ 13 1030.7F
15NM E FENWICK I 1550   47 47   20/  4/  4 1031.4F   1/15
OCEAN-CITY-INLET 1548   52 52   80/  8/ 14 1031.0F
WACHAPREAGUE VA  1548   56 56  100/  8/ 12 1030.3F
THOMAS POINT MD  1600   53 51  360/  2/  2 1030.7F
GOOSES REEF MD   1600   53      60/  6/  6 1030.2
COVE POINT MD    1548   53     160/  4/  5 1030.4F
SOLOMONS ISLAND  1548   53 53   90/  8/ 10 1029.2F
BISHOPS HEAD MD  1548   55 56  120/  5/  6 1030.3F
PINEY POINT MD   1542          150/  7/  8   N/A
POTOMAC MD       1600   54 54  130/  8/ 12 1031.0    1
CAMBRIDGE MD     1548   57 54              1030.6F
LEWISETTA VA     1548   53 55   90/  9/ 10 1029.3F
RAPPAHANNOCK LGT 1548          190/  4/  4 1030.6F
YORK RVR RNG VA  1548   54     140/ 12/ 13 1030.2F
YORKTOWN VA      1548   57 56  100/ 13/ 14 1029.0F
DOMINION TERM VA 1548   60      20/  1/  4 1029.8F
KIPTOPEKE VA     1548      54  200/  7/  8   N/A
CAPE HENRY VA    1548   56     130/  9/ 11   N/A
WILLOUBY STN VA  1548   55      80/ 10/ 11 1029.6F
S CRANEY ISL VA  1548   61     180/  4/  5 1029.4F
CAPE HENRY BUOY  1600      53                N/A     1/ 9
64NM E OF VA BCH 1550   50 50   20/  4/  6 1031.2S   2/ 9   2/ 9
DUCK PIER NC     1548   53 53   70/  6/  6 1030.0F
44100 DUCK FRF   1545      51                N/A     2/ 5
44056 DUCK FRF   1600      53                N/A     2/17
OREGON INLET NC  1542   53 56   30/  6/ 10 1030.1F
HATTERAS NC      1548   57 61   20/  9/ 11 1029.8R
DIAMOND SHLS NC  1600   58 74   10/ 12/ 16 1029.8
CAPE LOOKOUT NC  1600           70/ 14/ 15 1029.4F
$$




USA.gov is the U.S. government's official web portal to all federal, state and local government web resources and services.